Time,TemperatureF,DewpointF,PressureIn,WindDirection,WindDirectionDegrees,WindSpeedMPH,WindSpeedGustMPH,Humidity,HourlyPrecipIn,Conditions,Clouds,dailyrainin,SoftwareType,DateUTC
2013-06-11 00:00:00,73.4,66.2,30.01,East,101,1.0,2.0,78,0.00,,,0.00,meteohub,2013-06-11 10:00:00,
2013-06-11 00:06:00,73.2,66.0,30.01,ESE,115,1.0,2.0,78,0.00,,,0.00,meteohub,2013-06-11 10:06:00,
2013-06-11 00:11:00,73.2,66.4,30.01,SE,131,1.0,2.0,79,0.00,,,0.00,meteohub,2013-06-11 10:11:00,
2013-06-11 00:16:00,73.0,66.2,30.00,SE,141,0.0,2.0,79,0.00,,,0.00,meteohub,2013-06-11 10:16:00,
2013-06-11 00:21:00,73.0,66.2,30.00,ESE,114,2.0,2.0,79,0.00,,,0.00,meteohub,2013-06-11 10:21:00,
2013-06-11 00:27:00,73.0,66.2,30.00,East,98,2.0,2.0,79,0.00,,,0.00,meteohub,2013-06-11 10:27:00,
2013-06-11 00:32:00,73.0,66.2,30.00,ESE,105,2.0,3.0,79,0.00,,,0.00,meteohub,2013-06-11 10:32:00,
2013-06-11 00:37:00,73.0,66.2,30.00,ESE,112,1.0,3.0,79,0.00,,,0.00,meteohub,2013-06-11 10:37:00,
2013-06-11 00:42:00,73.0,66.2,30.00,East,95,0.0,3.0,79,0.00,,,0.00,meteohub,2013-06-11 10:42:00,
2013-06-11 00:47:00,73.0,66.2,30.00,East,96,1.0,4.0,79,0.00,,,0.00,meteohub,2013-06-11 10:47:00,
2013-06-11 00:52:00,73.0,66.2,30.00,ESE,115,0.0,4.0,79,0.00,,,0.00,meteohub,2013-06-11 10:52:00,
2013-06-11 00:57:00,72.9,66.0,29.99,ESE,113,1.0,4.0,79,0.00,,,0.00,meteohub,2013-06-11 10:57:00,
2013-06-11 01:03:00,73.0,66.6,29.99,SE,125,1.0,2.0,80,0.00,,,0.00,meteohub,2013-06-11 11:03:00,
2013-06-11 01:08:00,73.0,66.6,29.99,ESE,103,1.0,3.0,80,0.00,,,0.00,meteohub,2013-06-11 11:08:00,
2013-06-11 01:13:00,73.0,66.6,29.99,ESE,107,0.0,3.0,80,0.00,,,0.00,meteohub,2013-06-11 11:13:00,
2013-06-11 01:18:00,73.2,66.7,29.99,SE,138,0.0,3.0,80,0.00,,,0.00,meteohub,2013-06-11 11:18:00,
2013-06-11 01:23:00,73.0,66.6,29.99,ESE,113,2.0,2.0,80,0.00,,,0.00,meteohub,2013-06-11 11:23:00,
2013-06-11 01:28:00,73.0,66.6,29.98,ESE,113,1.0,3.0,80,0.00,,,0.00,meteohub,2013-06-11 11:28:00,
2013-06-11 01:34:00,73.0,66.6,29.98,ESE,105,3.0,4.0,80,0.00,,,0.00,meteohub,2013-06-11 11:34:00,
2013-06-11 01:39:00,73.0,66.6,29.98,East,96,3.0,6.0,80,0.00,,,0.00,meteohub,2013-06-11 11:39:00,
2013-06-11 01:44:00,73.0,66.2,29.98,East,98,2.0,6.0,79,0.00,,,0.00,meteohub,2013-06-11 11:44:00,
2013-06-11 01:49:00,73.0,66.6,29.98,ESE,113,2.0,6.0,80,0.00,,,0.00,meteohub,2013-06-11 11:49:00,
2013-06-11 01:54:00,73.0,66.6,29.98,ESE,113,1.0,5.0,80,0.00,,,0.00,meteohub,2013-06-11 11:54:00,
2013-06-11 01:59:00,73.0,66.2,29.98,ESE,117,1.0,4.0,79,0.00,,,0.00,meteohub,2013-06-11 11:59:00,
2013-06-11 02:05:00,73.0,66.2,29.98,ESE,110,1.0,4.0,79,0.00,,,0.00,meteohub,2013-06-11 12:05:00,
2013-06-11 02:10:00,73.0,66.2,29.98,ESE,115,0.0,4.0,79,0.00,,,0.00,meteohub,2013-06-11 12:10:00,
2013-06-11 02:15:00,72.9,66.0,29.98,ESE,109,0.0,4.0,79,0.00,,,0.00,meteohub,2013-06-11 12:15:00,
2013-06-11 02:20:00,72.7,65.8,29.98,ENE,71,2.0,4.0,79,0.00,,,0.00,meteohub,2013-06-11 12:20:00,
2013-06-11 02:25:00,72.5,66.0,29.98,East,100,1.0,2.0,80,0.00,,,0.00,meteohub,2013-06-11 12:25:00,
2013-06-11 02:30:00,72.3,65.8,29.98,ESE,123,1.0,2.0,80,0.00,,,0.00,meteohub,2013-06-11 12:30:00,
2013-06-11 02:35:00,72.1,66.0,29.98,ESE,105,2.0,2.0,81,0.00,,,0.00,meteohub,2013-06-11 12:35:00,
2013-06-11 02:40:00,72.1,65.7,29.98,ESE,108,2.0,3.0,80,0.00,,,0.00,meteohub,2013-06-11 12:40:00,
2013-06-11 02:45:00,72.3,65.8,29.98,ESE,115,2.0,3.0,80,0.00,,,0.00,meteohub,2013-06-11 12:45:00,
2013-06-11 02:50:00,72.3,65.8,29.98,ESE,121,1.0,3.0,80,0.00,,,0.00,meteohub,2013-06-11 12:50:00,
2013-06-11 02:56:00,72.3,65.8,29.98,ESE,113,0.0,3.0,80,0.00,,,0.00,meteohub,2013-06-11 12:56:00,
2013-06-11 03:01:00,72.1,65.7,29.97,ESE,114,1.0,3.0,80,0.00,,,0.00,meteohub,2013-06-11 13:01:00,
2013-06-11 03:06:00,72.1,65.7,29.97,East,94,1.0,3.0,80,0.00,,,0.00,meteohub,2013-06-11 13:06:00,
2013-06-11 03:11:00,72.0,65.5,29.97,NE,50,2.0,3.0,80,0.00,,,0.00,meteohub,2013-06-11 13:11:00,
2013-06-11 03:16:00,71.8,65.7,29.97,NE,50,1.0,3.0,81,0.00,,,0.00,meteohub,2013-06-11 13:16:00,
2013-06-11 03:21:00,71.6,65.5,29.97,East,91,2.0,3.0,81,0.00,,,0.00,meteohub,2013-06-11 13:21:00,
2013-06-11 03:27:00,71.4,65.3,29.97,ESE,107,1.0,3.0,81,0.00,,,0.00,meteohub,2013-06-11 13:27:00,
2013-06-11 03:32:00,71.4,65.3,29.97,ESE,120,1.0,4.0,81,0.00,,,0.00,meteohub,2013-06-11 13:32:00,
2013-06-11 03:37:00,71.6,65.5,29.97,ESE,122,1.0,4.0,81,0.00,,,0.00,meteohub,2013-06-11 13:37:00,
2013-06-11 03:42:00,71.6,65.5,29.97,ESE,106,2.0,4.0,81,0.00,,,0.00,meteohub,2013-06-11 13:42:00,
2013-06-11 03:47:00,71.6,65.5,29.97,East,85,1.0,3.0,81,0.00,,,0.00,meteohub,2013-06-11 13:47:00,
2013-06-11 03:52:00,71.4,65.3,29.97,ESE,112,1.0,3.0,81,0.00,,,0.00,meteohub,2013-06-11 13:52:00,
2013-06-11 03:58:00,71.2,65.1,29.97,East,99,1.0,3.0,81,0.00,,,0.00,meteohub,2013-06-11 13:58:00,
2013-06-11 04:03:00,71.2,65.1,29.97,East,89,1.0,2.0,81,0.00,,,0.00,meteohub,2013-06-11 14:03:00,
2013-06-11 04:08:00,71.2,65.1,29.97,East,82,0.0,2.0,81,0.00,,,0.00,meteohub,2013-06-11 14:08:00,
2013-06-11 04:13:00,71.1,64.9,29.97,ENE,72,1.0,2.0,81,0.00,,,0.00,meteohub,2013-06-11 14:13:00,
2013-06-11 04:18:00,71.1,64.9,29.97,ESE,103,0.0,2.0,81,0.00,,,0.00,meteohub,2013-06-11 14:18:00,
2013-06-11 04:23:00,70.9,64.8,29.97,East,84,1.0,2.0,81,0.00,,,0.00,meteohub,2013-06-11 14:23:00,
2013-06-11 04:29:00,70.9,64.8,29.97,East,85,1.0,2.0,81,0.00,,,0.00,meteohub,2013-06-11 14:29:00,
2013-06-11 04:34:00,71.1,65.3,29.97,NNW,329,1.0,2.0,82,0.00,,,0.00,meteohub,2013-06-11 14:34:00,
2013-06-11 04:39:00,70.9,65.1,29.97,NNW,339,0.0,4.0,82,0.00,,,0.00,meteohub,2013-06-11 14:39:00,
2013-06-11 04:44:00,70.9,65.1,29.97,ESE,115,1.0,4.0,82,0.00,,,0.00,meteohub,2013-06-11 14:44:00,
2013-06-11 04:49:00,70.9,65.1,29.98,ESE,110,2.0,4.0,82,0.00,,,0.00,meteohub,2013-06-11 14:49:00,
2013-06-11 04:54:00,70.9,65.5,29.98,ESE,123,1.0,3.0,83,0.00,,,0.00,meteohub,2013-06-11 14:54:00,
2013-06-11 04:59:00,70.9,65.5,29.98,East,98,1.0,3.0,83,0.00,,,0.00,meteohub,2013-06-11 14:59:00,
2013-06-11 05:04:00,70.9,65.1,29.97,ESE,104,2.0,3.0,82,0.00,,,0.00,meteohub,2013-06-11 15:04:00,
2013-06-11 05:09:00,70.9,65.1,29.97,East,94,2.0,3.0,82,0.00,,,0.00,meteohub,2013-06-11 15:09:00,
2013-06-11 05:14:00,70.9,65.1,29.97,ESE,108,1.0,3.0,82,0.00,,,0.00,meteohub,2013-06-11 15:14:00,
2013-06-11 05:20:00,70.9,65.1,29.97,East,98,2.0,3.0,82,0.00,,,0.00,meteohub,2013-06-11 15:20:00,
2013-06-11 05:25:00,70.9,65.1,29.98,ESE,102,2.0,4.0,82,0.00,,,0.00,meteohub,2013-06-11 15:25:00,
2013-06-11 05:30:00,71.1,65.3,29.98,ESE,106,3.0,4.0,82,0.00,,,0.00,meteohub,2013-06-11 15:30:00,
2013-06-11 05:35:00,71.1,65.3,29.98,East,89,1.0,4.0,82,0.00,,,0.00,meteohub,2013-06-11 15:35:00,
2013-06-11 05:40:00,71.1,65.3,29.98,ENE,72,2.0,4.0,82,0.00,,,0.00,meteohub,2013-06-11 15:40:00,
2013-06-11 05:45:00,71.1,65.3,29.98,SE,124,1.0,4.0,82,0.00,,,0.00,meteohub,2013-06-11 15:45:00,
2013-06-11 05:51:00,71.1,65.3,29.99,East,98,2.0,2.0,82,0.00,,,0.00,meteohub,2013-06-11 15:51:00,
2013-06-11 05:56:00,71.2,65.5,29.99,ESE,119,2.0,3.0,82,0.00,,,0.00,meteohub,2013-06-11 15:56:00,
2013-06-11 06:01:00,71.4,65.7,29.99,SE,131,3.0,4.0,82,0.00,,,0.00,meteohub,2013-06-11 16:01:00,
2013-06-11 06:06:00,71.8,66.0,30.00,East,96,4.0,5.0,82,0.00,,,0.00,meteohub,2013-06-11 16:06:00,
2013-06-11 06:11:00,72.1,66.4,30.00,ESE,109,1.0,5.0,82,0.00,,,0.00,meteohub,2013-06-11 16:11:00,
2013-06-11 06:16:00,72.3,66.2,30.00,ESE,114,1.0,5.0,81,0.00,,,0.00,meteohub,2013-06-11 16:16:00,
2013-06-11 06:21:00,72.7,66.6,30.00,West,281,1.0,4.0,81,0.00,,,0.00,meteohub,2013-06-11 16:21:00,
2013-06-11 06:27:00,72.5,66.4,30.00,NW,308,0.0,2.0,81,0.00,,,0.00,meteohub,2013-06-11 16:27:00,
2013-06-11 06:32:00,72.5,66.4,30.00,NW,322,0.0,1.0,81,0.00,,,0.00,meteohub,2013-06-11 16:32:00,
2013-06-11 06:37:00,72.7,66.6,30.00,NW,322,0.0,1.0,81,0.00,,,0.00,meteohub,2013-06-11 16:37:00,
2013-06-11 06:42:00,72.7,66.6,30.00,NNW,335,0.0,1.0,81,0.00,,,0.00,meteohub,2013-06-11 16:42:00,
2013-06-11 06:47:00,72.7,66.6,30.00,NNW,348,0.0,1.0,81,0.00,,,0.00,meteohub,2013-06-11 16:47:00,
2013-06-11 06:52:00,72.7,66.6,30.01,NNW,348,0.0,1.0,81,0.00,,,0.00,meteohub,2013-06-11 16:52:00,
2013-06-11 06:58:00,72.7,66.6,30.01,North,349,0.0,1.0,81,0.00,,,0.00,meteohub,2013-06-11 16:58:00,
2013-06-11 07:03:00,72.9,66.7,30.01,North,349,0.0,0.0,81,0.00,,,0.00,meteohub,2013-06-11 17:03:00,
2013-06-11 07:08:00,72.9,66.7,30.01,North,349,0.0,1.0,81,0.00,,,0.00,meteohub,2013-06-11 17:08:00,
2013-06-11 07:13:00,73.2,67.1,30.01,NNW,348,0.0,1.0,81,0.00,,,0.00,meteohub,2013-06-11 17:13:00,
2013-06-11 07:18:00,73.6,67.5,30.01,NNW,348,0.0,1.0,81,0.00,,,0.00,meteohub,2013-06-11 17:18:00,
2013-06-11 07:23:00,74.1,68.0,30.01,NE,42,0.0,1.0,81,0.00,,,0.00,meteohub,2013-06-11 17:23:00,
2013-06-11 07:28:00,74.5,68.2,30.01,SE,135,0.0,0.0,81,0.00,,,0.00,meteohub,2013-06-11 17:28:00,
2013-06-11 07:34:00,74.7,68.4,30.01,SE,131,0.0,1.0,81,0.00,,,0.00,meteohub,2013-06-11 17:34:00,
2013-06-11 07:39:00,74.7,67.6,30.01,ESE,111,0.0,1.0,79,0.00,,,0.00,meteohub,2013-06-11 17:39:00,
2013-06-11 07:44:00,74.8,67.8,30.01,SE,141,0.0,1.0,79,0.00,,,0.00,meteohub,2013-06-11 17:44:00,
2013-06-11 07:49:00,75.2,68.2,30.01,SSE,160,0.0,2.0,79,0.00,,,0.00,meteohub,2013-06-11 17:49:00,
2013-06-11 07:54:00,75.6,68.2,30.01,SSE,158,0.0,2.0,78,0.00,,,0.00,meteohub,2013-06-11 17:54:00,
2013-06-11 07:59:00,75.7,68.4,30.01,SSE,156,0.0,2.0,78,0.00,,,0.00,meteohub,2013-06-11 17:59:00,
2013-06-11 08:05:00,76.3,68.9,30.01,SW,218,1.0,1.0,78,0.00,,,0.00,meteohub,2013-06-11 18:05:00,
2013-06-11 08:10:00,76.1,68.0,30.01,WSW,239,2.0,2.0,76,0.00,,,0.00,meteohub,2013-06-11 18:10:00,
2013-06-11 08:15:00,75.9,68.2,30.01,West,266,2.0,2.0,77,0.00,,,0.00,meteohub,2013-06-11 18:15:00,
2013-06-11 08:20:00,75.9,68.2,30.01,WNW,295,2.0,5.0,77,0.00,,,0.00,meteohub,2013-06-11 18:20:00,
2013-06-11 08:25:00,75.7,68.0,30.01,WSW,253,3.0,5.0,77,0.00,,,0.00,meteohub,2013-06-11 18:25:00,
2013-06-11 08:30:00,75.7,68.4,30.02,West,259,2.0,5.0,78,0.00,,,0.00,meteohub,2013-06-11 18:30:00,
2013-06-11 08:35:00,75.7,68.4,30.02,WSW,254,1.0,4.0,78,0.00,,,0.00,meteohub,2013-06-11 18:35:00,
2013-06-11 08:41:00,75.7,68.4,30.02,WSW,245,1.0,5.0,78,0.00,,,0.00,meteohub,2013-06-11 18:41:00,
2013-06-11 08:46:00,75.7,68.0,30.02,West,262,0.0,5.0,77,0.00,,,0.00,meteohub,2013-06-11 18:46:00,
2013-06-11 08:51:00,76.3,68.5,30.01,ESE,118,0.0,5.0,77,0.00,,,0.00,meteohub,2013-06-11 18:51:00,
2013-06-11 08:56:00,76.8,67.8,30.01,West,274,1.0,3.0,74,0.00,,,0.00,meteohub,2013-06-11 18:56:00,
2013-06-11 09:02:00,77.0,68.0,30.01,NE,50,2.0,4.0,74,0.00,,,0.00,meteohub,2013-06-11 19:02:00,
2013-06-11 09:07:00,77.4,68.0,30.01,NW,304,5.0,5.0,73,0.00,,,0.00,meteohub,2013-06-11 19:07:00,
2013-06-11 09:12:00,77.2,67.8,30.01,NW,323,1.0,7.0,73,0.00,,,0.00,meteohub,2013-06-11 19:12:00,
2013-06-11 09:17:00,77.5,68.2,30.01,SW,229,2.0,7.0,73,0.00,,,0.00,meteohub,2013-06-11 19:17:00,
2013-06-11 09:22:00,77.7,68.0,30.01,NW,316,3.0,7.0,72,0.00,,,0.00,meteohub,2013-06-11 19:22:00,
2013-06-11 09:27:00,77.9,67.8,30.01,West,278,4.0,6.0,71,0.00,,,0.00,meteohub,2013-06-11 19:27:00,
2013-06-11 09:33:00,78.3,68.0,30.01,West,267,6.0,6.0,71,0.00,,,0.00,meteohub,2013-06-11 19:33:00,
2013-06-11 09:38:00,78.1,67.8,30.01,WNW,288,3.0,7.0,71,0.00,,,0.00,meteohub,2013-06-11 19:38:00,
2013-06-11 09:43:00,78.3,68.5,30.01,WNW,303,3.0,7.0,72,0.00,,,0.00,meteohub,2013-06-11 19:43:00,
2013-06-11 09:48:00,78.1,67.8,30.01,NW,325,3.0,7.0,71,0.00,,,0.00,meteohub,2013-06-11 19:48:00,
2013-06-11 09:53:00,78.3,68.0,30.01,West,274,5.0,7.0,71,0.00,,,0.00,meteohub,2013-06-11 19:53:00,
2013-06-11 09:58:00,78.1,67.5,30.01,WNW,298,6.0,7.0,70,0.00,,,0.00,meteohub,2013-06-11 19:58:00,
2013-06-11 10:03:00,78.3,68.0,30.01,West,259,4.0,7.0,71,0.00,,,0.00,meteohub,2013-06-11 20:03:00,
2013-06-11 10:09:00,78.6,68.4,30.01,WNW,290,5.0,8.0,71,0.00,,,0.00,meteohub,2013-06-11 20:09:00,
2013-06-11 10:14:00,78.4,67.8,30.01,WNW,301,3.0,8.0,70,0.00,,,0.00,meteohub,2013-06-11 20:14:00,
2013-06-11 10:19:00,78.8,68.2,30.01,WNW,288,5.0,8.0,70,0.00,,,0.00,meteohub,2013-06-11 20:19:00,
2013-06-11 10:24:00,79.0,68.7,30.01,West,260,3.0,8.0,71,0.00,,,0.00,meteohub,2013-06-11 20:24:00,
2013-06-11 10:29:00,79.3,68.4,30.00,West,263,4.0,8.0,69,0.00,,,0.00,meteohub,2013-06-11 20:29:00,
2013-06-11 10:34:00,79.2,68.5,30.00,West,263,7.0,8.0,70,0.00,,,0.00,meteohub,2013-06-11 20:34:00,
2013-06-11 10:40:00,79.3,68.7,30.00,West,262,6.0,9.0,70,0.00,,,0.00,meteohub,2013-06-11 20:40:00,
2013-06-11 10:45:00,79.3,67.5,30.00,WSW,254,6.0,9.0,67,0.00,,,0.00,meteohub,2013-06-11 20:45:00,
2013-06-11 10:50:00,79.5,68.5,30.00,WNW,284,8.0,10.0,69,0.00,,,0.00,meteohub,2013-06-11 20:50:00,
2013-06-11 10:55:00,80.1,67.3,30.00,SW,222,5.0,10.0,65,0.00,,,0.00,meteohub,2013-06-11 20:55:00,
2013-06-11 11:00:00,80.4,68.0,29.99,WNW,286,5.0,10.0,66,0.00,,,0.00,meteohub,2013-06-11 21:00:00,
2013-06-11 11:05:00,80.4,67.1,29.99,West,260,4.0,9.0,64,0.00,,,0.00,meteohub,2013-06-11 21:05:00,
2013-06-11 11:10:00,79.9,66.2,29.99,WSW,256,5.0,9.0,63,0.00,,,0.00,meteohub,2013-06-11 21:10:00,
2013-06-11 11:15:00,80.1,66.7,29.99,SW,231,2.0,7.0,64,0.00,,,0.00,meteohub,2013-06-11 21:15:00,
2013-06-11 11:21:00,80.8,67.5,29.99,West,263,8.0,8.0,64,0.00,,,0.00,meteohub,2013-06-11 21:21:00,
2013-06-11 11:26:00,81.0,66.7,29.99,SSE,148,5.0,9.0,62,0.00,,,0.00,meteohub,2013-06-11 21:26:00,
2013-06-11 11:31:00,81.0,66.2,29.99,WSW,239,5.0,9.0,61,0.00,,,0.00,meteohub,2013-06-11 21:31:00,
2013-06-11 11:36:00,81.3,67.1,29.99,SW,226,7.0,12.0,62,0.00,,,0.00,meteohub,2013-06-11 21:36:00,
2013-06-11 11:41:00,82.0,66.7,29.99,West,278,6.0,12.0,60,0.00,,,0.00,meteohub,2013-06-11 21:41:00,
2013-06-11 11:46:00,82.2,67.5,29.99,SSW,206,7.0,12.0,61,0.00,,,0.00,meteohub,2013-06-11 21:46:00,
2013-06-11 11:51:00,82.8,68.9,29.99,West,264,5.0,12.0,63,0.00,,,0.00,meteohub,2013-06-11 21:51:00,
2013-06-11 11:56:00,82.6,67.8,29.99,SW,228,7.0,11.0,61,0.00,,,0.00,meteohub,2013-06-11 21:56:00,
2013-06-11 12:01:00,82.9,68.2,29.99,SW,217,5.0,13.0,61,0.00,,,0.00,meteohub,2013-06-11 22:01:00,
2013-06-11 12:06:00,82.8,68.0,29.98,West,260,4.0,13.0,61,0.00,,,0.00,meteohub,2013-06-11 22:06:00,
2013-06-11 12:11:00,82.2,66.9,29.98,West,259,7.0,12.0,60,0.00,,,0.00,meteohub,2013-06-11 22:11:00,
2013-06-11 12:16:00,82.8,67.5,29.98,WSW,243,6.0,12.0,60,0.00,,,0.00,meteohub,2013-06-11 22:16:00,
2013-06-11 12:22:00,83.1,66.7,29.98,NW,304,7.0,12.0,58,0.00,,,0.00,meteohub,2013-06-11 22:22:00,
2013-06-11 12:27:00,82.6,66.7,29.98,WNW,297,4.0,10.0,59,0.00,,,0.00,meteohub,2013-06-11 22:27:00,
2013-06-11 12:32:00,82.2,66.9,29.97,West,269,4.0,10.0,60,0.00,,,0.00,meteohub,2013-06-11 22:32:00,
2013-06-11 12:37:00,82.6,66.7,29.97,WNW,286,5.0,10.0,59,0.00,,,0.00,meteohub,2013-06-11 22:37:00,
2013-06-11 12:42:00,82.9,67.6,29.97,WNW,284,6.0,9.0,60,0.00,,,0.00,meteohub,2013-06-11 22:42:00,
2013-06-11 12:47:00,83.5,67.1,29.97,West,276,5.0,11.0,58,0.00,,,0.00,meteohub,2013-06-11 22:47:00,
2013-06-11 12:52:00,82.9,67.1,29.97,WNW,300,6.0,12.0,59,0.00,,,0.00,meteohub,2013-06-11 22:52:00,
2013-06-11 12:57:00,82.8,66.9,29.97,WNW,297,11.0,12.0,59,0.00,,,0.00,meteohub,2013-06-11 22:57:00,
2013-06-11 13:02:00,82.6,66.7,29.97,WNW,286,5.0,13.0,59,0.00,,,0.00,meteohub,2013-06-11 23:02:00,
2013-06-11 13:07:00,82.8,66.9,29.97,West,263,8.0,13.0,59,0.00,,,0.00,meteohub,2013-06-11 23:07:00,
2013-06-11 13:13:00,83.1,66.7,29.97,WNW,290,6.0,13.0,58,0.00,,,0.00,meteohub,2013-06-11 23:13:00,
2013-06-11 13:18:00,82.9,67.6,29.97,West,281,10.0,11.0,60,0.00,,,0.00,meteohub,2013-06-11 23:18:00,
2013-06-11 13:23:00,82.8,66.9,29.96,West,276,2.0,11.0,59,0.00,,,0.00,meteohub,2013-06-11 23:23:00,
2013-06-11 13:28:00,82.8,67.5,29.96,West,272,6.0,11.0,60,0.00,,,0.00,meteohub,2013-06-11 23:28:00,
2013-06-11 13:33:00,82.6,67.8,29.97,WNW,292,6.0,10.0,61,0.00,,,0.00,meteohub,2013-06-11 23:33:00,
2013-06-11 13:38:00,82.2,66.9,29.96,WNW,288,3.0,10.0,60,0.00,,,0.00,meteohub,2013-06-11 23:38:00,
2013-06-11 13:43:00,82.2,66.9,29.96,WNW,294,7.0,10.0,60,0.00,,,0.00,meteohub,2013-06-11 23:43:00,
2013-06-11 13:48:00,82.4,66.6,29.96,WSW,239,4.0,9.0,59,0.00,,,0.00,meteohub,2013-06-11 23:48:00,
2013-06-11 13:54:00,82.6,67.3,29.96,NW,314,4.0,9.0,60,0.00,,,0.00,meteohub,2013-06-11 23:54:00,
2013-06-11 13:59:00,82.6,66.7,29.96,WNW,290,6.0,9.0,59,0.00,,,0.00,meteohub,2013-06-11 23:59:00,
2013-06-11 14:04:00,82.2,66.4,29.96,West,276,5.0,9.0,59,0.00,,,0.00,meteohub,2013-06-12 00:04:00,
2013-06-11 14:09:00,81.9,66.2,29.96,West,266,5.0,9.0,59,0.00,,,0.00,meteohub,2013-06-12 00:09:00,
2013-06-11 14:14:00,81.7,66.4,29.96,West,280,5.0,8.0,60,0.00,,,0.00,meteohub,2013-06-12 00:14:00,
2013-06-11 14:19:00,82.2,66.4,29.96,WNW,285,6.0,8.0,59,0.00,,,0.00,meteohub,2013-06-12 00:19:00,
2013-06-11 14:25:00,82.6,68.7,29.96,West,260,4.0,8.0,63,0.00,,,0.00,meteohub,2013-06-12 00:25:00,
2013-06-11 14:30:00,82.8,68.0,29.96,West,281,3.0,8.0,61,0.00,,,0.00,meteohub,2013-06-12 00:30:00,
2013-06-11 14:35:00,82.8,66.6,29.96,WNW,284,4.0,8.0,58,0.00,,,0.00,meteohub,2013-06-12 00:35:00,
2013-06-11 14:40:00,82.2,66.9,29.96,WNW,292,6.0,8.0,60,0.00,,,0.00,meteohub,2013-06-12 00:40:00,
2013-06-11 14:45:00,82.2,67.8,29.96,West,278,2.0,9.0,62,0.00,,,0.00,meteohub,2013-06-12 00:45:00,
2013-06-11 14:50:00,82.2,67.8,29.96,WNW,298,6.0,8.0,62,0.00,,,0.00,meteohub,2013-06-12 00:50:00,
2013-06-11 14:55:00,82.2,66.9,29.96,WNW,294,8.0,9.0,60,0.00,,,0.00,meteohub,2013-06-12 00:55:00,
2013-06-11 15:00:00,81.9,67.1,29.96,WNW,297,4.0,9.0,61,0.00,,,0.00,meteohub,2013-06-12 01:00:00,
2013-06-11 15:06:00,81.9,67.6,29.96,WNW,300,3.0,9.0,62,0.00,,,0.00,meteohub,2013-06-12 01:06:00,
2013-06-11 15:11:00,81.7,67.8,29.96,West,277,6.0,9.0,63,0.00,,,0.00,meteohub,2013-06-12 01:11:00,
2013-06-11 15:16:00,81.9,67.6,29.96,WNW,288,6.0,8.0,62,0.00,,,0.00,meteohub,2013-06-12 01:16:00,
2013-06-11 15:21:00,81.9,68.0,29.96,WNW,295,4.0,8.0,63,0.00,,,0.00,meteohub,2013-06-12 01:21:00,
2013-06-11 15:26:00,81.9,67.6,29.96,NNW,328,2.0,8.0,62,0.00,,,0.00,meteohub,2013-06-12 01:26:00,
2013-06-11 15:31:00,81.5,67.6,29.96,NW,316,5.0,8.0,63,0.00,,,0.00,meteohub,2013-06-12 01:31:00,
2013-06-11 15:36:00,81.3,67.5,29.96,NNW,330,5.0,8.0,63,0.00,,,0.00,meteohub,2013-06-12 01:36:00,
2013-06-11 15:41:00,81.3,68.0,29.96,NW,304,1.0,8.0,64,0.00,,,0.00,meteohub,2013-06-12 01:41:00,
2013-06-11 15:47:00,81.7,67.8,29.95,NNE,22,0.0,8.0,63,0.00,,,0.00,meteohub,2013-06-12 01:47:00,
2013-06-11 15:52:00,82.0,68.2,29.95,WNW,288,4.0,8.0,63,0.00,,,0.00,meteohub,2013-06-12 01:52:00,
2013-06-11 15:57:00,82.0,67.3,29.95,West,274,3.0,5.0,61,0.00,,,0.00,meteohub,2013-06-12 01:57:00,
2013-06-11 16:02:00,81.7,66.9,29.95,WNW,300,3.0,6.0,61,0.00,,,0.00,meteohub,2013-06-12 02:02:00,
2013-06-11 16:07:00,81.3,68.4,29.94,NW,304,2.0,9.0,65,0.00,,,0.00,meteohub,2013-06-12 02:07:00,
2013-06-11 16:12:00,81.9,68.0,29.94,WNW,286,1.0,9.0,63,0.00,,,0.00,meteohub,2013-06-12 02:12:00,
2013-06-11 16:17:00,82.0,68.2,29.94,WNW,285,4.0,8.0,63,0.00,,,0.00,meteohub,2013-06-12 02:17:00,
2013-06-11 16:22:00,82.6,68.7,29.94,NW,311,5.0,8.0,63,0.00,,,0.00,meteohub,2013-06-12 02:22:00,
2013-06-11 16:28:00,82.8,68.4,29.94,NW,322,6.0,10.0,62,0.00,,,0.00,meteohub,2013-06-12 02:28:00,
2013-06-11 16:33:00,82.8,68.4,29.94,WNW,294,9.0,10.0,62,0.00,,,0.00,meteohub,2013-06-12 02:33:00,
2013-06-11 16:38:00,82.2,68.4,29.94,NW,316,7.0,10.0,63,0.00,,,0.00,meteohub,2013-06-12 02:38:00,
2013-06-11 16:43:00,82.0,68.2,29.94,NW,306,7.0,11.0,63,0.00,,,0.00,meteohub,2013-06-12 02:43:00,
2013-06-11 16:48:00,81.9,68.5,29.94,WNW,290,8.0,11.0,64,0.00,,,0.00,meteohub,2013-06-12 02:48:00,
2013-06-11 16:53:00,81.5,68.2,29.95,WNW,287,6.0,10.0,64,0.00,,,0.00,meteohub,2013-06-12 02:53:00,
2013-06-11 16:58:00,81.1,67.8,29.95,WNW,290,6.0,10.0,64,0.00,,,0.00,meteohub,2013-06-12 02:58:00,
2013-06-11 17:04:00,81.3,68.4,29.95,WNW,283,6.0,10.0,65,0.00,,,0.00,meteohub,2013-06-12 03:04:00,
2013-06-11 17:09:00,81.7,68.4,29.95,NNW,340,3.0,9.0,64,0.00,,,0.00,meteohub,2013-06-12 03:09:00,
2013-06-11 17:14:00,81.5,68.2,29.95,WNW,302,7.0,9.0,64,0.00,,,0.00,meteohub,2013-06-12 03:14:00,
2013-06-11 17:19:00,81.3,68.4,29.95,NW,318,6.0,9.0,65,0.00,,,0.00,meteohub,2013-06-12 03:19:00,
2013-06-11 17:24:00,81.1,67.8,29.95,NW,326,4.0,9.0,64,0.00,,,0.00,meteohub,2013-06-12 03:24:00,
2013-06-11 17:29:00,81.1,67.8,29.95,NNW,345,3.0,9.0,64,0.00,,,0.00,meteohub,2013-06-12 03:29:00,
2013-06-11 17:35:00,81.7,68.4,29.95,NW,304,5.0,9.0,64,0.00,,,0.00,meteohub,2013-06-12 03:35:00,
2013-06-11 17:40:00,81.9,68.0,29.95,WNW,290,5.0,9.0,63,0.00,,,0.00,meteohub,2013-06-12 03:40:00,
2013-06-11 17:45:00,81.5,69.1,29.95,WNW,302,5.0,11.0,66,0.00,,,0.00,meteohub,2013-06-12 03:45:00,
2013-06-11 17:50:00,81.3,67.5,29.96,NW,309,5.0,11.0,63,0.00,,,0.00,meteohub,2013-06-12 03:50:00,
2013-06-11 17:55:00,81.3,68.4,29.96,WNW,296,4.0,9.0,65,0.00,,,0.00,meteohub,2013-06-12 03:55:00,
2013-06-11 18:00:00,81.3,68.9,29.96,NNW,328,8.0,9.0,66,0.00,,,0.00,meteohub,2013-06-12 04:00:00,
2013-06-11 18:01:00,81.3,68.0,29.96,NNW,333,6.0,9.0,64,0.00,,,0.00,meteohub,2013-06-12 04:01:00,
2013-06-11 18:02:00,81.1,68.2,29.96,NW,305,5.0,9.0,65,0.00,,,0.00,meteohub,2013-06-12 04:02:00,
2013-06-11 18:04:00,81.0,68.5,29.96,WNW,295,6.0,9.0,66,0.00,,,0.00,meteohub,2013-06-12 04:04:00,
2013-06-11 18:07:00,80.8,68.4,29.96,NNW,328,6.0,9.0,66,0.00,,,0.00,meteohub,2013-06-12 04:07:00,
2013-06-11 18:12:00,80.4,68.0,29.96,WNW,301,5.0,10.0,66,0.00,,,0.00,meteohub,2013-06-12 04:12:00,
2013-06-11 18:18:00,80.1,68.2,29.96,NW,310,4.0,11.0,67,0.00,,,0.00,meteohub,2013-06-12 04:18:00,
2013-06-11 18:23:00,79.9,68.4,29.96,NNW,335,6.0,11.0,68,0.00,,,0.00,meteohub,2013-06-12 04:23:00,
2013-06-11 18:28:00,79.5,68.0,29.96,NNE,30,2.0,11.0,68,0.00,,,0.00,meteohub,2013-06-12 04:28:00,
2013-06-11 18:33:00,79.3,68.4,29.97,NW,318,7.0,12.0,69,0.00,,,0.00,meteohub,2013-06-12 04:33:00,
2013-06-11 18:38:00,79.0,68.4,29.97,WNW,300,6.0,12.0,70,0.00,,,0.00,meteohub,2013-06-12 04:38:00,
2013-06-11 18:44:00,78.6,68.4,29.97,NNW,333,6.0,11.0,71,0.00,,,0.00,meteohub,2013-06-12 04:44:00,
2013-06-11 18:49:00,78.3,68.5,29.97,NNW,329,3.0,12.0,72,0.00,,,0.00,meteohub,2013-06-12 04:49:00,
2013-06-11 18:54:00,77.9,68.5,29.98,North,6,4.0,12.0,73,0.00,,,0.00,meteohub,2013-06-12 04:54:00,
2013-06-11 18:59:00,77.7,68.7,29.98,NNW,328,1.0,12.0,74,0.00,,,0.00,meteohub,2013-06-12 04:59:00,
2013-06-11 19:04:00,77.5,68.2,29.98,North,7,1.0,9.0,73,0.00,,,0.00,meteohub,2013-06-12 05:04:00,
2013-06-11 19:09:00,77.5,68.5,29.98,NNE,13,0.0,7.0,74,0.00,,,0.00,meteohub,2013-06-12 05:09:00,
2013-06-11 19:15:00,77.5,68.5,29.98,North,1,2.0,7.0,74,0.00,,,0.00,meteohub,2013-06-12 05:15:00,
2013-06-11 19:20:00,77.4,68.4,29.99,NE,56,0.0,7.0,74,0.00,,,0.00,meteohub,2013-06-12 05:20:00,
2013-06-11 19:25:00,77.4,68.4,29.99,NE,55,2.0,6.0,74,0.00,,,0.00,meteohub,2013-06-12 05:25:00,
2013-06-11 19:30:00,77.2,68.2,29.99,NE,40,3.0,6.0,74,0.00,,,0.00,meteohub,2013-06-12 05:30:00,
2013-06-11 19:35:00,77.4,68.4,29.99,NE,50,1.0,6.0,74,0.00,,,0.00,meteohub,2013-06-12 05:35:00,
2013-06-11 19:40:00,77.4,68.4,29.99,NE,55,5.0,6.0,74,0.00,,,0.00,meteohub,2013-06-12 05:40:00,
2013-06-11 19:45:00,77.5,68.5,30.00,ENE,73,2.0,6.0,74,0.00,,,0.00,meteohub,2013-06-12 05:45:00,
2013-06-11 19:51:00,77.5,68.2,30.00,North,4,3.0,5.0,73,0.00,,,0.00,meteohub,2013-06-12 05:51:00,
2013-06-11 19:56:00,77.5,68.2,30.00,NE,50,1.0,5.0,73,0.00,,,0.00,meteohub,2013-06-12 05:56:00,
2013-06-11 20:01:00,77.7,68.4,30.00,NE,46,1.0,5.0,73,0.00,,,0.00,meteohub,2013-06-12 06:01:00,
2013-06-11 20:06:00,77.7,68.4,30.00,ENE,63,2.0,6.0,73,0.00,,,0.00,meteohub,2013-06-12 06:06:00,
2013-06-11 20:11:00,77.7,68.4,30.00,North,9,1.0,6.0,73,0.00,,,0.00,meteohub,2013-06-12 06:11:00,
2013-06-11 20:16:00,77.7,68.4,30.00,North,356,1.0,6.0,73,0.00,,,0.00,meteohub,2013-06-12 06:16:00,
2013-06-11 20:21:00,77.7,68.4,30.00,NW,308,3.0,6.0,73,0.00,,,0.00,meteohub,2013-06-12 06:21:00,
2013-06-11 20:27:00,77.5,68.2,30.00,NNW,340,1.0,5.0,73,0.00,,,0.00,meteohub,2013-06-12 06:27:00,
2013-06-11 20:32:00,77.5,68.2,30.00,NNW,342,1.0,5.0,73,0.00,,,0.00,meteohub,2013-06-12 06:32:00,
2013-06-11 20:37:00,77.5,68.2,30.00,WNW,297,2.0,5.0,73,0.00,,,0.00,meteohub,2013-06-12 06:37:00,
2013-06-11 20:42:00,77.4,68.0,30.00,NNW,328,3.0,5.0,73,0.00,,,0.00,meteohub,2013-06-12 06:42:00,
2013-06-11 20:47:00,77.2,67.8,30.00,NW,316,2.0,5.0,73,0.00,,,0.00,meteohub,2013-06-12 06:47:00,
2013-06-11 20:52:00,77.2,68.2,30.00,NW,321,3.0,5.0,74,0.00,,,0.00,meteohub,2013-06-12 06:52:00,
2013-06-11 20:57:00,76.8,67.8,30.00,NNW,329,3.0,5.0,74,0.00,,,0.00,meteohub,2013-06-12 06:57:00,
2013-06-11 21:02:00,76.6,67.6,30.00,North,11,0.0,5.0,74,0.00,,,0.00,meteohub,2013-06-12 07:02:00,
2013-06-11 21:08:00,76.6,67.6,30.00,NNW,342,0.0,4.0,74,0.00,,,0.00,meteohub,2013-06-12 07:08:00,
2013-06-11 21:13:00,76.5,68.0,30.00,NNW,348,3.0,4.0,75,0.00,,,0.00,meteohub,2013-06-12 07:13:00,
2013-06-11 21:18:00,76.3,67.8,30.00,NE,40,0.0,4.0,75,0.00,,,0.00,meteohub,2013-06-12 07:18:00,
2013-06-11 21:23:00,76.3,67.8,30.00,NE,36,5.0,5.0,75,0.00,,,0.00,meteohub,2013-06-12 07:23:00,
2013-06-11 21:28:00,76.1,67.6,30.01,NNE,26,2.0,8.0,75,0.00,,,0.00,meteohub,2013-06-12 07:28:00,
2013-06-11 21:33:00,75.9,67.5,30.01,NNE,25,6.0,8.0,75,0.00,,,0.00,meteohub,2013-06-12 07:33:00,
2013-06-11 21:39:00,75.7,67.3,30.01,NNW,331,3.0,8.0,75,0.00,,,0.00,meteohub,2013-06-12 07:39:00,
2013-06-11 21:44:00,75.7,67.3,30.01,NNE,15,7.0,8.0,75,0.00,,,0.00,meteohub,2013-06-12 07:44:00,
2013-06-11 21:49:00,75.7,67.6,30.01,ENE,77,1.0,9.0,76,0.00,,,0.00,meteohub,2013-06-12 07:49:00,
2013-06-11 21:54:00,75.6,67.5,30.01,North,352,2.0,9.0,76,0.00,,,0.00,meteohub,2013-06-12 07:54:00,
2013-06-11 21:59:00,75.6,67.5,30.02,North,359,2.0,9.0,76,0.00,,,0.00,meteohub,2013-06-12 07:59:00,
2013-06-11 22:04:00,75.6,67.5,30.02,North,350,1.0,6.0,76,0.00,,,0.00,meteohub,2013-06-12 08:04:00,
2013-06-11 22:09:00,75.4,67.3,30.02,NW,317,0.0,6.0,76,0.00,,,0.00,meteohub,2013-06-12 08:09:00,
2013-06-11 22:14:00,75.2,67.1,30.02,North,7,2.0,6.0,76,0.00,,,0.00,meteohub,2013-06-12 08:14:00,
2013-06-11 22:20:00,75.0,67.3,30.02,NNE,19,1.0,6.0,77,0.00,,,0.00,meteohub,2013-06-12 08:20:00,
2013-06-11 22:25:00,75.0,67.3,30.02,NNE,20,0.0,4.0,77,0.00,,,0.00,meteohub,2013-06-12 08:25:00,
2013-06-11 22:30:00,75.0,67.3,30.02,NNE,23,0.0,4.0,77,0.00,,,0.00,meteohub,2013-06-12 08:30:00,
2013-06-11 22:35:00,74.8,67.1,30.02,NE,36,0.0,4.0,77,0.00,,,0.00,meteohub,2013-06-12 08:35:00,
2013-06-11 22:40:00,74.8,67.1,30.02,NW,311,0.0,4.0,77,0.00,,,0.00,meteohub,2013-06-12 08:40:00,
2013-06-11 22:45:00,74.8,67.1,30.02,NE,43,2.0,4.0,77,0.00,,,0.00,meteohub,2013-06-12 08:45:00,
2013-06-11 22:50:00,74.8,67.1,30.02,NE,51,0.0,3.0,77,0.00,,,0.00,meteohub,2013-06-12 08:50:00,
2013-06-11 22:56:00,74.7,66.9,30.02,NE,51,0.0,4.0,77,0.00,,,0.00,meteohub,2013-06-12 08:56:00,
2013-06-11 23:01:00,74.7,67.3,30.02,ESE,117,2.0,4.0,78,0.00,,,0.00,meteohub,2013-06-12 09:01:00,
2013-06-11 23:06:00,74.7,67.3,30.02,SSE,149,2.0,2.0,78,0.00,,,0.00,meteohub,2013-06-12 09:06:00,
2013-06-11 23:11:00,74.5,67.1,30.02,SE,136,2.0,3.0,78,0.00,,,0.00,meteohub,2013-06-12 09:11:00,
2013-06-11 23:16:00,74.5,67.1,30.02,SSW,211,1.0,4.0,78,0.00,,,0.00,meteohub,2013-06-12 09:16:00,
2013-06-11 23:21:00,74.5,67.1,30.02,SW,225,4.0,4.0,78,0.00,,,0.00,meteohub,2013-06-12 09:21:00,
2013-06-11 23:26:00,74.5,67.1,30.02,SW,215,1.0,4.0,78,0.00,,,0.00,meteohub,2013-06-12 09:26:00,
2013-06-11 23:31:00,74.5,67.5,30.02,SSE,148,4.0,7.0,79,0.00,,,0.00,meteohub,2013-06-12 09:31:00,
2013-06-11 23:36:00,74.1,67.1,30.01,ESE,121,2.0,7.0,79,0.00,,,0.00,meteohub,2013-06-12 09:36:00,
2013-06-11 23:41:00,74.1,67.1,30.01,SE,141,1.0,7.0,79,0.00,,,0.00,meteohub,2013-06-12 09:41:00,
2013-06-11 23:46:00,74.1,67.1,30.01,SE,133,4.0,6.0,79,0.00,,,0.00,meteohub,2013-06-12 09:46:00,
2013-06-11 23:51:00,74.1,67.1,30.01,South,178,2.0,6.0,79,0.00,,,0.00,meteohub,2013-06-12 09:51:00,
2013-06-11 23:56:00,73.9,67.1,30.01,ESE,122,1.0,6.0,79,0.00,,,0.00,meteohub,2013-06-12 09:56:00,